Regional Weather Roundup
Issued by NWS

Home | Current Version | Previous Version | Graphics & Text | Print | Product List | Glossary On
Versions: 1 2 3 4 5 6 7 8 9 10 11 12 13 14 15 16 17 18 19 20 21 22 23 24 25 26 27 28 29 30 31 32 33 34 35 36 37 38 39 40 41 42 43 44 45 46 47 48 49 50
000
ASUS43 KLMK 181110
RWRKY
KENTUCKY REGIONAL WEATHER ROUNDUP
NATIONAL WEATHER SERVICE LOUISVILLE KY
600 AM EST WED JAN 18 2017

NOTE "FAIR" INDICATES FEW OR NO CLOUDS BELOW 12,000 FEET
WITH NO SIGNIFICANT WEATHER AND/OR OBSTRUCTIONS TO VISIBILITY.

KYZ001>023-026-027-061>063-070>075-181200-
WESTERN AND SOUTH CENTRAL KENTUCKY

CITY           SKY/WX    TMP DP  RH WIND       PRES   REMARKS
PADUCAH        CLOUDY    42  36  79 N6        30.19S
HENDERSON      CLOUDY    41  36  81 NW8       30.20R
OWENSBORO      CLOUDY    42  38  85 NW7       30.21R
HOPKINSVILLE   CLOUDY    44  40  86 NW5       30.19R
BOWLING GREEN  CLOUDY    46  39  76 VRB3      30.19R
GLASGOW        CLOUDY    43  38  82 W6        30.18R
$$

KYZ024-025-028>034-038-045-046-053-181200-
NORTH CENTRAL KENTUCKY

CITY           SKY/WX    TMP DP  RH WIND       PRES   REMARKS
LOUISVILLE/SDF DRIZZLE   43  37  79 NW8       30.17R
LOUISVILLE/LOU CLOUDY    43  36  76 NW8       30.17R
FORT KNOX      CLOUDY    40  38  90 NW5       30.15R
$$

KYZ035>037-039>044-047>052-055>060-089>105-181200-
NORTHEAST KENTUCKY

CITY           SKY/WX    TMP DP  RH WIND       PRES   REMARKS
LEXINGTON      CLOUDY    42  38  85 W9        30.14R
COVINGTON      DRIZZLE   39  37  92 W15       30.13R FOG     WCI  31
FRANKFORT      CLOUDY    43  36  76 W8        30.14R
$$

KYZ054-064>069-076>088-106>120-181200-
SOUTHEAST KENTUCKY

CITY           SKY/WX    TMP DP  RH WIND       PRES   REMARKS
JACKSON        CLOUDY    43  39  86 W10G18    30.11R
LONDON         CLOUDY    44  40  85 W10       30.13R
SOMERSET       CLOUDY    41  41 100 NW6       30.18R
MIDDLESBORO    CLOUDY    50  44  80 NW5       30.12R
MONTICELLO     CLOUDY    43  42  97 NW7       30.18R
$$





USA.gov is the U.S. government's official web portal to all federal, state and local government web resources and services.